Location: Newark
(5.8900°S, 42.6378°W)
Time: 20:04:21
(UTC+00:00)

XW-2D - Pass Details

Date: 31 October 2019
Orbit: 507 x 528 km, 97.5° (Epoch: 22 November)

Event Time Altitude Azimuth Distance (km) Brightness Sun altitude
Rises 21:00:07 0° 189° (S) 2,657 ? -4.8°
Reaches altitude 10° 21:02:30 10° 202° (SSW) 1,761 ? -5.4°
Maximum altitude 21:05:37 24° 258° (WSW) 1,097 ? -6.1°
Drops below altitude 10° 21:08:42 10° 313° (NW) 1,740 ? -6.9°
Sets 21:11:03 0° 327° (NNW) 2,618 ? -7.4°
